Weather in Tokchin

Russia / Zabaykalsky Krai     50°30′46″N   114°08′00″E
temp.,
°C
wind,
m/s
gust,
m/s
humid.,
%
clouds,
%
prec.,
mm/h
press.,
hPa
HPBL,
m
12 may, wed
wed1200:00+7nw91654100 0.0 1005492
03:00+5wnw7166098 0.0 1006425
06:00+3wnw514670 0.0 1008354
09:00+8nw913460 0.0 1007831
12:00+13nw810310 0.0 10062035
15:00+16nw71024100 0.0 10043432
18:00+15nw8102829 0.0 10032772
21:00+10nw512430 0.0 1006307
13 may, thu
thu1300:00+8w48530 0.0 1008144
03:00+6wnw49653 0.0 1009209
06:00+4sw227138 0.0 100930
09:00+6nw685998 0.1 1010952
12:00+6wnw5669100 0.6 1010962
15:00+6wnw5866100 2.0 10091110
18:00+6sw2351100 1.0 1007319
21:00+5wsw346048 1.0 100754
14 may, fri
fri1400:00+4wnw5125659 0.0 1009371
03:00+2wnw6135432 0.0 1009356
06:00−1w712630 0.0 1010382
09:00+4nw8106798 0.0 1010998
12:00+7nw695299 0.0 10101751
15:00+11nw8939100 0.1 10082493
18:00+12nnw71035100 0.0 10082387
21:00+8nnw225246 0.0 101010
15 may, sat
sat1500:00+6wsw225096 0.0 101213
03:00+4w22540 0.0 101418
06:00+3wsw33580 0.0 101545
09:00+9wnw58340 0.0 1014551
12:00+15nw57210 0.0 10121901
15:00+18wnw57160 0.0 10092675
18:00+19w471320 0.0 10073336
21:00+14w6132517 0.0 1008250
16 may, sun
sun1600:00+11w513310 0.0 1008244
03:00+9wsw344228 0.0 100949
06:00+9w71550100 0.0 1009532
09:00+11wnw10155272 0.0 10101792
12:00+14wnw1219294 0.0 10092399
15:00+16wnw1317245 0.0 10082868
18:00+16wnw1117265 0.0 10082961
21:00+12wnw711363 0.0 1010386